Regional Weather Roundup
Issued by NWS

Home | Current Version | Previous Version | Graphics & Text | Print | Product List | Glossary On
Versions: 1 2 3 4 5 6 7 8 9 10 11 12 13 14 15 16 17 18 19 20 21 22 23 24 25 26 27 28 29 30 31 32 33 34 35 36 37 38 39 40 41 42 43 44 45 46 47 48 49 50
480
ASUS45 KBOU 261510
RWRCO

WEATHER ROUNDUP FOR COLORADO
NATIONAL WEATHER SERVICE DENVER/BOULDER CO
900 AM MDT MON SEP 26 2016

NOTE: "FAIR" INDICATES FEW OR NO CLOUDS BELOW 12000 FEET WITH NO
SIGNIFICANT WEATHER AND/OR OBSTRUCTIONS TO VISIBILITY.

COZ001>005-013-030-031-261600-
...NORTHWEST COLORADO...

CITY           SKY/WX    TMP DP  RH WIND       PRES   REMARKS
CRAIG          FAIR      40  35  83 CALM      30.52F
HAYDEN         FAIR      43  30  61 E8        30.53S
MEEKER         FAIR      41  34  76 CALM      30.53S
MOUNT WERNER   NOT AVBL
STEAMBOAT SPGS FAIR      38  32  78 CALM      30.54S
WALDEN           N/A     34  27  75 E3        30.59S
$$

COZ006>008-011-261600-
...WEST CENTRAL VALLEYS...

CITY           SKY/WX    TMP DP  RH WIND       PRES   REMARKS
GRAND JUNCTION FAIR      54  39  57 SE14      30.46S
MONTROSE       FAIR      48  37  65 S5        30.52S
EAGLE          SUNNY     37  30  75 CALM      30.59R
RIFLE          FAIR      47  39  74 N5        30.51R
DELTA          FAIR      50  38  63 CALM      30.50R
NUCLA          FAIR      48  34  57 SE3       30.53S
$$

COZ017>023-064>068-261600-
...SOUTHWEST COLORADO...

CITY           SKY/WX    TMP DP  RH WIND       PRES   REMARKS
DURANGO        FAIR      47  35  63 CALM      30.52S
CORTEZ         FAIR      52  41  66 CALM      30.48S
PAGOSA SPRINGS FAIR      48  35  60 S5        30.55F
TELLURIDE      FAIR      47  33  59 CALM      30.62S
WOLF CREEK PAS FAIR      41  28  60 CALM      30.76S
$$

COZ009-010-012-014-032>034-037-058>063-261600-
...CENTRAL COLORADO...

CITY           SKY/WX    TMP DP  RH WIND       PRES   REMARKS
ASPEN          FAIR      45  30  55 CALM      30.54F
BUENA VISTA    FAIR      44  28  54 CALM      30.57F
COPPER MTN     FAIR      48  16  27 CALM      30.72S
BERTHOUD PASS  FAIR      36  25  64 E9        30.74S
COTTONWOOD PAS FAIR      45  21  39 CALM      30.62F
GUNNISON       FAIR      37  29  72 CALM      30.62S
KREMMLING      FAIR      36  27  69 CALM      30.61S
LEADVILLE      FAIR      38  22  52 CALM      30.63S
MONARCH PASS   FAIR      37  27  65 SW9       30.84R
SALIDA         FAIR      44  28  54 NW5       30.66S
SUNLIGHT       FAIR      45  27  49 SW5       30.70R
WILKERSON PASS FAIR      43  18  36 CALM      30.71F
$$

COZ069>075-261600-
...SAN LUIS VALLEY/SANGRE DE CRISTO MOUNTAINS...

CITY           SKY/WX    TMP DP  RH WIND       PRES   REMARKS
ALAMOSA        FAIR      44  31  60 CALM      30.57S
LA VETA PASS   FAIR      43  32  65 MISG      30.65S
SAGUACHE       NOT AVBL
$$

COZ035-036-038>040-261600-
...NORTHERN COLORADO FRONT RANGE...

CITY           SKY/WX    TMP DP  RH WIND       PRES   REMARKS
DENVER INTL AP FAIR      56  32  40 W9        30.43S
DMNS CITY PARK   N/A     55  33  43 SE7       30.44S
AURORA         SUNNY     56  32  40 SW8       30.45R
FRONT RANGE AP SUNNY     57  32  38 SW9       30.45R
ERIE MUNI ARPT FAIR      55  33  43 CALM      30.43S
BOULDER MUN AP FAIR      55  32  41 CALM      30.42F
CENTENNIAL     FAIR      58  31  35 W7        30.45R
BROOMFIELD     SUNNY     57  30  35 CALM      30.45R
FORT COLLINS   FAIR      52  36  54 CALM      30.42S
LONGMONT       FAIR      56  36  47 CALM      30.43F
$$

COZ041-046-047-076>085-087-088-261600-
...PIKES PEAK/PALMER DIVIDE AND SOUTHERN FOOTHILLS...

CITY           SKY/WX    TMP DP  RH WIND       PRES   REMARKS
COLO. SPRINGS  FAIR      57  31  37 NW5       30.47S
A. F. ACADEMY  FAIR      52  31  45 N5        30.47S
SCHRIEVER AFB  NOT AVBL
ELLICOTT       NOT AVBL
FALCON         FAIR      60  26  26 N9        30.50R
FORT CARSON    FAIR      53  31  43 N5        30.45R
LIMON          FAIR      55  31  39 NW5       30.44R
MONUMENT HILL  FAIR      55  30  38 NW6       30.51R
TRINIDAD       FAIR      55  32  41 SW10      30.46S
$$

COZ042>045-048>051-090-091-261600-
...NORTHEAST COLORADO...

CITY           SKY/WX    TMP DP  RH WIND       PRES   REMARKS
GREELEY ARPT   FAIR      48  39  71 SW5       30.43S
AKRON          FAIR      53  32  44 W14       30.40R
BURLINGTON     FAIR      58  35  42 SW8       30.40S
WRAY           NOT AVBL
STERLING       FAIR      46  34  61 SW6       30.37F
HOLYOKE        FAIR      59  41  51 W6        30.37S
FORT MORGAN    FAIR      50  34  54 W9        30.41R
$$

COZ086-089-092>099-261600-
...SOUTHEAST COLORADO...

CITY           SKY/WX    TMP DP  RH WIND       PRES   REMARKS
PUEBLO         FAIR      53  32  44 W3        30.43S
LA JUNTA       FAIR      52  33  48 W7        30.42S
LAMAR          FAIR      54  34  46 CALM      30.40S
SPRINGFIELD    NOT AVBL
$$




USA.gov is the U.S. government's official web portal to all federal, state and local government web resources and services.